Location: Darlington Observatory
(36.4817°N, 105.8156°W)
Time: 14:00:14
(UTC-06:00)

NOSS 3-3 (A) - Visible Passes

Search period start: 21 August 2014 00:00
Search period end: 31 August 2014 00:00
Orbit: 976 x 1237 km, 63.4° (Epoch: 15 August)

Date Brightness Start Highest point End Pass type
(mag) Time Alt. Az. Time Alt. Az. Time Alt. Az.
21 Aug 5.6 00:28:21 30° NNE 00:28:21 30° NNE 00:31:33 10° NNE visible
21 Aug 6.2 02:15:46 15° NW 02:17:02 16° NW 02:21:03 10° N visible
21 Aug 5.9 23:44:45 22° NE 23:44:45 22° NE 23:46:53 10° NE visible
22 Aug 5.9 01:32:09 23° NW 01:32:09 23° NW 01:37:05 10° N visible
22 Aug 6.2 23:01:04 14° NE 23:01:04 14° NE 23:01:57 10° NE visible
23 Aug 5.6 00:48:29 30° NNW 00:48:29 30° NNW 00:52:52 10° NNE visible
24 Aug 5.5 00:04:43 33° N 00:04:43 33° N 00:08:30 10° NNE visible
24 Aug 6.5 01:52:07 11° NW 01:54:31 13° NNW 01:57:24 10° N visible
24 Aug 7.0 05:41:58 10° N 05:44:31 12° NNE 05:47:05 10° NE visible
24 Aug 5.5 23:20:52 29° NNE 23:20:52 29° NNE 23:23:57 10° NNE visible
25 Aug 6.2 01:08:15 18° NW 01:09:10 18° NW 01:13:44 10° N visible
25 Aug 5.6 22:36:51 23° NE 22:36:51 23° NE 22:39:12 10° NE visible
26 Aug 5.8 00:24:14 27° NW 00:24:14 27° NW 00:29:40 10° NNE visible
26 Aug 6.7 06:02:02 10° N 06:07:23 21° NE 06:12:52 10° E visible
26 Aug 5.8 21:52:37 17° ENE 21:52:37 17° ENE 21:54:08 10° NE visible
26 Aug 5.2 23:39:58 39° NNW 23:39:58 39° NNW 23:45:23 10° NNE visible
27 Aug 6.8 01:31:20 10° NNW 01:32:06 10° NNW 01:32:52 10° NNW visible
27 Aug 6.9 05:18:11 10° N 05:22:04 15° NNE 05:26:01 10° ENE visible
27 Aug 5.9 21:07:57 12° ENE 21:07:57 12° ENE 21:08:31 10° ENE visible
27 Aug 4.5 22:55:15 57° NNW 22:55:15 57° NNW 23:00:57 10° NNE visible
28 Aug 6.6 00:43:06 10° WNW 00:46:38 15° NNW 00:50:15 10° N visible
28 Aug 7.2 04:35:24 10° NNE 04:36:33 10° NNE 04:37:43 10° NE visible
28 Aug 3.9 22:09:09 75° SSE 22:09:37 79° ESE 22:16:20 10° NE visible
28 Aug 6.2 23:56:31 10° W 00:01:21 21° NW 00:06:22 10° N visible
29 Aug 6.6 05:38:44 10° NNW 05:44:44 27° NE 05:50:56 10° E visible
29 Aug 4.2 21:19:06 10° S 21:25:09 47° ESE 21:31:29 10° NE visible
29 Aug 5.6 23:10:35 10° WSW 23:16:16 31° NW 23:22:13 10° NNE visible
30 Aug 6.8 04:54:41 10° N 04:59:32 18° NE 05:04:31 10° E visible
30 Aug 4.8 20:35:34 10° SSE 20:40:50 28° ESE 20:46:15 10° NE visible
30 Aug 4.9 22:25:11 10° SW 22:31:21 49° NW 22:37:53 10° NNE visible
